Regional Weather Roundup
Issued by NWS

Home | Current Version | Previous Version | Graphics & Text | Print | Product List | Glossary On
Versions: 1 2 3 4 5 6 7 8 9 10 11 12 13 14 15 16 17 18 19 20 21 22 23 24 25 26 27 28 29 30 31 32 33 34 35 36 37 38 39 40 41 42 43 44 45 46 47 48 49 50
000
ASUS43 KDMX 221001
RWRIA

WEATHER ROUNDUP FOR IOWA
NATIONAL WEATHER SERVICE DES MOINES IA
400 AM CST SUN JAN 22 2017

NOTE: "FAIR" INDICATES FEW OR NO CLOUDS BELOW 12,000 FEET WITH NO
SIGNIFICANT WEATHER AND/OR OBSTRUCTIONS TO VISIBILITY.

* - THESE STATIONS ARE NOT NWS STATIONS...THUS NOT UNDER NWS
QUALITY CONTROL.  THEY ALSO DO NOT REPORT WEATHER SUCH
AS PRECIPITATION OR FOG.

IAZ001>003-012>014-020>022-031>034-043>046-221100-
   NORTHWEST IOWA

CITY           SKY/WX    TMP DP  RH WIND       PRES   REMARKS
CARROLL *      CLOUDY    32  32 100 NW12      29.62S WCI  23
CHEROKEE *     CLOUDY    32  32  99 NW5       29.62S WCI  27
DENISON *      CLOUDY    32  30  93 N14       29.61S WCI  22
LE MARS *      CLOUDY    32  30  93 NW6       29.65R WCI  26
ORANGE CITY *  CLOUDY    32  30  93 NW10      29.62S WCI  24
SHELDON *      CLOUDY    32  32 100 NW12      29.60S WCI  23
SIOUX CITY     CLOUDY    33  30  88 N21       29.63S WCI  21
SPENCER          N/A    N/A N/A N/A MISG      29.60R
STORM LAKE *   CLOUDY    32  30  93 NW10      29.61R FOG     WCI  24
$$

IAZ055>058-069>071-079>083-090>094-221100-
   SOUTHWEST IOWA

CITY           SKY/WX    TMP DP  RH WIND       PRES   REMARKS
ATLANTIC *     FOG       27  27 100 CALM      29.62R VSB 1/4
AUDUBON *      CLOUDY    30  28  93 NW6       29.63R FOG     WCI  24
CLARINDA *     PTCLDY    30  30 100 N3        29.63R FOG
COUNCIL BLFS * CLEAR     30  30 100 NW6       29.63R WCI  24
CRESTON *      PTCLDY    32  32 100 N8        29.61R WCI  25
HARLAN  *      CLOUDY    30  30 100 N10G17    29.66R WCI  21
LAMONI         FOG       28  27  96 CALM      29.58R VSB 3/4
RED OAK *      CLEAR     28  28 100 N5        29.62R FOG     WCI  23
SHENANDOAH *   CLEAR     34  32  93 NE9       29.63R WCI  26
$$

IAZ047>049-059>061-072>074-084-221100-
   CENTRAL IOWA

CITY           SKY/WX    TMP DP  RH WIND       PRES   REMARKS
AMES           CLOUDY    32  32 100 NW10      29.60S WCI  24
ANKENY *       FOG       32  32 100 N6G13     29.62R VSB 3/4 WCI  26
BOONE *        CLOUDY    32  32 100 NW8       29.59F WCI  25
CHARITON *     FOG       28  28 100 CALM      29.60R VSB<1/4
DES MOINES     CLOUDY    34  33  96 N7        29.60R FOG     WCI  28
GRINNELL*      FOG       32  32  99 CALM      29.59R VSB 1/2
KNOXVILLE *    FOG       30  30 100 CALM      29.59R VSB<1/4
MARSHALLTOWN   CLOUDY    33  33 100 NW8       29.58F FOG     WCI  26
NEWTON *       FOG       34  34 100 N5        29.59R VSB 1/4 WCI  30
PELLA *        FOG       31  31  99 CALM      29.61S VSB 1/4
PERRY *        CLOUDY    32  32  99 NW8       29.62R WCI  25
$$

IAZ004>006-015-016-023>025-035-036-221100-
   NORTH CENTRAL IOWA

CITY           SKY/WX    TMP DP  RH WIND       PRES   REMARKS
ALGONA *       CLOUDY    34  34 100 NW8       29.60R FOG     WCI  27
CLARION *      CLOUDY    32  32 100 NW8       29.60R FOG     WCI  25
ESTHERVILLE    CLOUDY    32  32 100 NW8       29.59R FOG     WCI  25
FORT DODGE *   CLOUDY    34  28  80 W6        29.61R WCI  29
MASON CITY     FOG       32  32 100 NW7       29.59R VSB 1/2 WCI  26
FOREST CITY *  FOG       32  32 100 NW3       29.59R VSB 1/2
WEBSTER CITY * CLOUDY    32 N/A N/A NW8       29.59R WCI  25
IOWA FALLS *   CLOUDY    33  32  98 NW9       29.60R WCI  25
$$

IAZ007>011-017>019-026>030-037>042-050>054-066-221100-
   NORTHEAST IOWA

CITY           SKY/WX    TMP DP  RH WIND       PRES   REMARKS
CEDAR RAPIDS   FOG       31  31 100 S3        29.58R VSB 1/2
CHARLES CITY * CLOUDY    32  32 100 W8        29.58S WCI  25
CLINTON *      CLEAR     32  32 100 CALM      29.59S FOG
DECORAH *      FOG       34  34 100 CALM      29.56S VSB<1/4
DUBUQUE        FOG       32  32 100 CALM      29.57S VSB 1/2
MONTICELLO *   FOG       32  32 100 S3        29.59R VSB<1/4
OELWEIN *      FOG       32  32 100 SW5       29.58R VSB 1/4 WCI  27
WATERLOO       CLOUDY    33  32  96 NW6       29.58S FOG     WCI  28
$$

IAZ064-065-067-068-078-221100-
   EAST CENTRAL IOWA

CITY           SKY/WX    TMP DP  RH WIND       PRES   REMARKS
DAVENPORT      FOG       31  29  92 CALM      29.58S VSB 1/4
IOWA CITY      FOG       29  28  96 CALM      29.61R VSB 1/4
MUSCATINE *    FOG       28  28 100 CALM      29.59F VSB<1/4
QUAD CITIES    PTCLDY    31  29  92 CALM      29.57F FOG
$$

IAZ062-063-075>077-085>089-095>099-221100-
   SOUTHEAST IOWA

CITY           SKY/WX    TMP DP  RH WIND       PRES   REMARKS
BURLINGTON     FOG       36  36 100 N3        29.57S VSB 1/4
FAIRFIELD *    CLOUDY    30  30 100 CALM      29.58S FOG
FORT MADISON * FOG       36  36 100 CALM      29.58S VSB 1/4
KEOKUK *       MOCLDY    36 N/A N/A S5        29.59R FOG     WCI  32
OSKALOOSA *    FOG       30  30 100 CALM      29.60R VSB 1/4
CENTERVILLE *  FOG       32  32 100 CALM      29.59F VSB 1/2
OTTUMWA        MOCLDY    30  28  92 W3        29.58S FOG
WASHINGTON *   FOG       30  30 100 NW5       29.59F VSB 1/4 WCI  25
$$

ABBREVIATIONS USED IN REMARKS
   TC - TEMPERATURES IN CELSIUS
  WCI - WIND CHILL INDEX
   HX - HEAT INDEX
  VSB - VISIBILITY
$$





USA.gov is the U.S. government's official web portal to all federal, state and local government web resources and services.